Regional Weather Roundup
Issued by NWS

Home | Current Version | Previous Version | Graphics & Text | Print | Product List | Glossary Off
Versions: 1 2 3 4 5 6 7 8 9 10 11 12 13 14 15 16 17 18 19 20 21 22 23 24 25 26 27 28 29 30 31 32 33 34 35 36 37 38 39 40 41 42 43 44 45 46 47 48 49 50

000
ASUS43 KMKX 300200
RWRWI

WISCONSIN REGIONAL WEATHER ROUNDUP
NATIONAL WEATHER SERVICE MILWAUKEE/SULLIVAN WI
900 PM CDT WED MAR 29 2017

NOTE: "FAIR" INDICATES FEW OR NO CLOUDS BELOW 12,000 FEET WITH NO
SIGNIFICANT WEATHER AND/OR OBSTRUCTIONS TO VISIBILITY.

WIZ001-002-006>008-014>016-023>028-300300-
NORTHWEST WISCONSIN

CITY           SKY/WX    TMP DP  RH WIND       PRES   REMARKS
SUPERIOR ARPT  CLOUDY    33  31  92 NE9       30.24S WCI  26
ASHLAND        CLOUDY    33  28  81 N6        30.22S WCI  28
HAYWARD        CLOUDY    42  31  64 N5        30.18R
SIREN          CLOUDY    45  33  61 NE3       30.17S
CUMBERLAND     CLOUDY    43  32  65 SE5       30.17S
RICE LAKE      CLOUDY    45  33  65 CALM      30.19S
CHETEK         CLOUDY    44  34  69 E7        30.18S
LADYSMITH      CLOUDY    45  32  60 SE3       30.20S
EAU CLAIRE     NOT AVBL
MENOMONIE      DRIZZLE   42  39  90 E9        30.19R
NEW RICHMOND   CLOUDY    44  34  68 SE6       30.17R
OSCEOLA        CLOUDY    44  35  69 E5        30.19S
$$

WIZ003>005-009-010-017-018-300300-
NORTH CENTRAL WISCONSIN

CITY           SKY/WX    TMP DP  RH WIND       PRES   REMARKS
MANITOWISH WTR CLOUDY    41  29  61 SE3       30.19R
ARBOR VITAE    CLOUDY    43  29  59 SE3       30.19S
WOODRUFF       CLOUDY    43  29  59 SE3       30.19S
RHINELANDER    CLOUDY    39  28  64 E5        30.21R
EAGLE RIVER    CLOUDY    40  25  55 SE3       30.20S
LAND O LAKES   CLOUDY    39  28  63 SE3       30.22R
PHILLIPS       CLOUDY    41  31  65 CALM      30.18S
TOMAHAWK       CLOUDY    38  30  73 CALM      30.21R
MEDFORD        CLOUDY    39  31  71 SE5       30.20R
MERRILL        CLOUDY    41  30  66 SE5       30.21S
$$

WIZ029-030-035-036-043>047-300300-
CENTRAL WISCONSIN

CITY           SKY/WX    TMP DP  RH WIND       PRES   REMARKS
WAUSAU         CLOUDY    40  27  59 SE9       30.20S WCI  34
MOSINEE        DRIZZLE   39  30  70 E9        30.23R WCI  33
MARSHFIELD     LGT RAIN  38  34  85 E9        30.18F FOG     WCI  31
STEVENS POINT  RAIN      35  34  96 NE7       30.23R WCI  29
WAUPACA        CLOUDY    42  26  55 NE7       30.22F
WAUTOMA        LGT RAIN  40  27  59 NE13G22   30.20F WCI  32
WISC RAPIDS    LGT RAIN  37  37 100 E10       30.22S WCI  30
CAMP DOUGLAS   NOT AVBL
$$

WIZ011>013-019>022-031-037>040-048>050-300300-
NORTHEAST WISCONSIN

CITY           SKY/WX    TMP DP  RH WIND       PRES   REMARKS
ANTIGO         CLOUDY    37  29  72 SE6       30.22R WCI  32
SHAWANO        CLOUDY    40  29  65 E6        30.26R
OCONTO         CLOUDY    37  25  62 NE5       30.26R WCI  33
STURGEON BAY   CLOUDY    38  28  67 NE5       30.23F WCI  34
GREEN BAY      CLOUDY    38  31  76 NE6       30.25R WCI  33
MANITOWOC      NOT AVBL
APPLETON       CLOUDY    37  27  65 NE10      30.20S WCI  30
CLINTONVILLE   CLOUDY    37  27  65 E3        30.25R
OSHKOSH        CLOUDY    38  30  73 NE9       30.19F WCI  31
$$

WIZ032>034-041-042-053>061-300300-
SOUTHWEST WISCONSIN

CITY           SKY/WX    TMP DP  RH WIND       PRES   REMARKS
LA CROSSE      LGT RAIN  43  38  82 E14G21    30.15S
SPARTA         LGT RAIN  40  38  93 E9        30.17F WCI  34
VIROQUA        CLOUDY    40  38  93 E17       30.12S WCI  32
BOSCOBEL       RAIN      42  38  85 E12G20    30.12S FOG
PRAIRIE DU CHI DRIZZLE   38  38  97 NE8       30.10F WCI  33
PLATTEVILLE    CLOUDY    39  39  98 NE20G25   30.07R WCI  30
$$

WIZ056-057-062-063-064-067-068-300300-
SOUTH CENTRAL WISCONSIN

CITY           SKY/WX    TMP DP  RH WIND       PRES   REMARKS
REEDSBURG      CLOUDY    41  32  68 NE12      30.15R
BARABOO/DELLS  CLOUDY    41  30  66 E10       30.16R
LONE ROCK      LGT RAIN  42  37  82 E17G24    30.13R
MINERAL POINT  LGT RAIN  39  39 100 NE15G22   30.09S WCI  31
MADISON        LGT RAIN  40  35  83 E15       30.14S WCI  32
MIDDLETON      CLOUDY    42  38  85 E15       30.14R
WATERTOWN      LGT RAIN  38  34  84 E7        30.15F WCI  33
MONROE         CLOUDY    39  37  93 NE20G26   30.06F WCI  30
JANESVILLE     DRIZZLE   41  39  93 NE12G23   30.10F
$$

WIZ051-052-058>065-066-070>072-300300-
SOUTHEAST WISCONSIN

CITY           SKY/WX    TMP DP  RH WIND       PRES   REMARKS
MILWAUKEE      LGT RAIN  38  34  85 N15       30.17F WCI  29
WAUKESHA       RAIN      37  32  81 E7        30.17F WCI  32
MILWAUKEE/TIMM DRIZZLE   39  30  70 E5        30.19F
RACINE         LGT RAIN  39  35  86 N14       30.17F WCI  31
KENOSHA        LGT RAIN  39  36  89 NE14      30.13S WCI  31
FOND DU LAC    CLOUDY    39  27  62 NE10      30.18F WCI  32
SHEBOYGAN      CLOUDY    37  31  78 NE14      30.18F WCI  28
WEST BEND      CLOUDY    37  32  81 NE8       30.17F WCI  31
JUNEAU         DRIZZLE   39  30  69 E8        30.17F WCI  34
$$

LSZ147-162-300300-
LAKE SUPERIOR

STATION/POSITION TIME  TEMP    WIND        PRES    WAVE
                       AIR SEA DIR/SP/G            HT/PER
                 (UTC) (F)     (DEG/KT/KT) (MB)    (FT/S)
DEVILS ISLAND    0100   34      60/ 17/ 21 1024.3F
PORT WING        0040   35      40/ 17/ 20 1023.7S
SAXON HARBOR     0040   36     200/  4/  5 1022.7F
$$

LMZ867-665-643>646-300300-
LAKE MICHIGAN

STATION/POSITION TIME  TEMP    WIND        PRES    WAVE
                       AIR SEA DIR/SP/G            HT/PER
                 (UTC) (F)     (DEG/KT/KT) (MB)    (FT/S)
CHAMBERS ISLAND  0040   36      40/ 10/ 12 1024.0S
NORTHPORT PIER   0040   36      60/  9/ 13 1024.4F
SISTER BAY       0121   37      90/ 10/ 14   N/A
KEWAUNEE LAKESHO 0130   36      30/  7/ 11 1023.2R
SHEBOYGAN LAKESH 0100   36      10/ 16/ 17 1023.6R
PORT WASHINGTON  0030   40      10/  7/ 12 1023.0R
MILWAUKEE LAKESH 0130   37      30/ 13/ 14   N/A
KENOSHA   LAKESH 0100   39      20/ 24/ 28 1020.0
$$

TC  - TEMPERATURE IN CELSIUS
VSB - VISIBILITY IN STATUTE MILES
WCI - WIND CHILL INDEX
HX  - HEAT INDEX





USA.gov is the U.S. government's official web portal to all federal, state and local government web resources and services.